Regional Weather Roundup
Issued by NWS Huntsville, AL

Current Version | Previous Version | Text Only | Print | Product List | Glossary On
Versions: 1 2 3 4 5 6 7 8 9 10 11 12 13 14 15 16 17 18 19 20 21 22 23 24 25 26 27 28 29 30 31 32 33 34 35 36 37 38 39 40 41 42 43 44 45 46 47 48 49 50
000
ASUS44 KHUN 280610
RWRHUN

WEATHER ROUNDUP FOR THE TENNESSEE VALLEY
NATIONAL WEATHER SERVICE HUNTSVILLE AL
100 AM CDT TUE JUL 28 2015

ALZ001>004-280700-
NORTHWEST ALABAMA

CITY           SKY/WX    TMP DP  RH WIND       PRES   REMARKS
COURTLAND HCN    N/A     79 N/A N/A CALM        N/A
BANKHEAD NF      N/A     76  76  99 CALM        N/A
RUSSELLVILLE     N/A     75 N/A N/A MISG        N/A
SHOALS AIRPORT CLEAR     79  74  84 CALM      29.99F
6HR MIN TEMP:  78; 6HR MAX TEMP:  92;

SHOALS TVA RES   N/A     77 N/A N/A MISG        N/A
$$

ALZ005>007-016-280700-
NORTH CENTRAL ALABAMA

CITY           SKY/WX    TMP DP  RH WIND       PRES   REMARKS
DECATUR AP     CLEAR     76  74  93 CALM      29.98F
6HR MIN TEMP:  74; 6HR MAX TEMP:  91;

HUNTSVILLE AP  CLEAR     79  73  82 CALM      29.98F
6HR MIN TEMP:  79; 6HR MAX TEMP:  94;

HUN NWS/UAH      N/A     80  73  78 SE1         N/A
MERIDIANVILLE  CLEAR     75  70  83 CALM      29.99F
REDSTONE ARSN  CLEAR     76  74  93 S1        29.98F
VINEMONT AP    FAIR      73  73  97 CALM      30.02F FOG
$$

ALZ008>010-280700-
NORTHEAST ALABAMA

CITY           SKY/WX    TMP DP  RH WIND       PRES   REMARKS
ALBERTVILLE    CLEAR     73  73 100 CALM      30.00F
FORT PAYNE     PTCLDY    72  68  88 CALM      30.00F
SCOTTSBORO AP  PTCLDY    77  75  94 CALM      30.00S
SCOTTSBORO HCN   N/A     75 N/A N/A MISG        N/A
VALLEY HEAD      N/A     72 N/A N/A MISG        N/A
$$

TNZ076-096-097-280700-
SOUTHEASTERN MIDDLE TENNESSEE

CITY           SKY/WX    TMP DP  RH WIND       PRES   REMARKS
TULLAHOMA      CLEAR     75  72  88 CALM      30.02F
WINCHESTER     CLEAR     75  72  88 CALM      30.01F
$$

...SURROUNDING SITES...

CITY           SKY/WX    TMP DP  RH WIND       PRES   REMARKS
ATLANTA        PTCLDY    76  70  82 S3        30.01S
ANNISTON       CLEAR     76  73  91 CALM      30.00S
BIRMINGHAM     CLEAR     75  74  96 E3        30.01F
CHATTANOOGA    PTCLDY    79  75  87 CALM      29.99F
DALTON         CLEAR     77  77 100 CALM      30.00S
GADSDEN        CLEAR     75  70  83 CALM      29.98F
GOLDEN TRNGL   CLEAR     79  72  78 CALM      29.96F
HALEYVILLE     FAIR      75  75 100 CALM      30.03F FOG
JACKSON TN     CLEAR     78  76  93 SW3       29.96F FOG
MEMPHIS        PTCLDY    84  75  74 SW3       29.95F HX  92
NASHVILLE      MOCLDY    81  76  84 CALM      29.98S
ROME           CLEAR     75  73  93 N3        29.98F
SAVANNAH       CLEAR     75  32  20 CALM      29.98F
TUPELO         CLEAR     80  77  90 CALM      29.96F
TUSCALOOSA     CLEAR     78  76  93 CALM      29.97F
$$

...GULF COAST WEATHER...

CITY           SKY/WX    TMP DP  RH WIND       PRES   REMARKS
GULFPORT       CLEAR     78  74  87 CALM      29.96S
PASCAGOULA     CLEAR     75  74  96 CALM      29.97S FOG
MOBILE         PTCLDY    77  74  90 W3        29.98S
GULF SHORES    CLEAR     78  75  91 CALM      29.96S
PENSACOLA      CLEAR     80  74  81 NW3       29.95S
DESTIN         PTCLDY    85  73  67 NW3       29.95S HX  91
PANAMA CITY    PTCLDY    81  74  79 NW6       29.94S
APPALACHICOLA  PTCLDY    79  75  87 CALM      29.94
$$



USA.gov is the U.S. government's official web portal to all federal, state and local government web resources and services.